Regional Weather Roundup
Issued by NWS

Home | Current Version | Previous Version | Graphics & Text | Print | Product List | Glossary On
Versions: 1 2 3 4 5 6 7 8 9 10 11 12 13 14 15 16 17 18 19 20 21 22 23 24 25 26 27 28 29 30 31 32 33 34 35 36 37 38 39 40 41 42 43 44 45 46 47 48 49 50
000
ASUS43 KMKX 200000
RWRWI

WISCONSIN REGIONAL WEATHER ROUNDUP
NATIONAL WEATHER SERVICE MILWAUKEE/SULLIVAN WI
600 PM CST FRI DEC 19 2014

NOTE: "FAIR" INDICATES FEW OR NO CLOUDS BELOW 12,000 FEET WITH NO
SIGNIFICANT WEATHER AND/OR OBSTRUCTIONS TO VISIBILITY.

WIZ001-002-006>008-014>016-023>028-200100-
NORTHWEST WISCONSIN

CITY           SKY/WX    TMP DP  RH WIND       PRES   REMARKS
SUPERIOR ARPT  CLOUDY    27  23  85 CALM      30.22S
ASHLAND        CLOUDY    25  22  88 CALM      30.24S
6HR MIN TEMP:  24; 6HR MAX TEMP:  25; 6HR PCP: TRACE;

HAYWARD        CLOUDY    25  20  81 S6        30.21R WCI  18
6HR MIN TEMP:  23; 6HR MAX TEMP:  25; 6HR PCP: TRACE;

SIREN          CLOUDY    27  21  80 S8        30.21R WCI  18
CUMBERLAND     CLOUDY    27  21  80 SE9       30.21R WCI  17
RICE LAKE      CLOUDY    27  21  80 SE7       30.23S WCI  19
CHETEK         CLOUDY    26  22  84 SE6       30.23R WCI  19
LADYSMITH      CLOUDY    26  22  87 SE7       30.24S WCI  18
EAU CLAIRE     NOT AVBL
MENOMONIE      CLOUDY    28  21  75 SE7       30.24S WCI  21
NEW RICHMOND   CLOUDY    27  24  89 SE9       30.22R WCI  17
OSCEOLA        CLOUDY    28  24  86 SE10      30.23S WCI  18
$$

WIZ003>005-009-010-017-018-200100-
NORTH CENTRAL WISCONSIN

CITY           SKY/WX    TMP DP  RH WIND       PRES   REMARKS
MANITOWISH WTR CLOUDY    22  18  87 CALM      30.20S
ARBOR VITAE    CLOUDY    22  18  85 CALM      30.20S
WOODRUFF       CLOUDY    22  18  85 CALM      30.20S
RHINELANDER    CLOUDY    21  16  81 SW3       30.21S
6HR MIN TEMP:  19; 6HR MAX TEMP:  25;

EAGLE RIVER    CLOUDY    15  15  96 CALM      30.20S
LAND O LAKES   CLOUDY    17  16  93 CALM      30.21S
PHILLIPS       CLOUDY    22  20  93 S6        30.21S WCI  14
TOMAHAWK       CLOUDY    20  17  86 CALM      30.23S
MEDFORD        CLOUDY    22  20  93 S6        30.23R WCI  14
MERRILL        CLOUDY    22  19  87 SW6       30.24R WCI  15
$$

WIZ029-030-035-036-043>047-200100-
CENTRAL WISCONSIN

CITY           SKY/WX    TMP DP  RH WIND       PRES   REMARKS
WAUSAU         PTCLDY    22  18  85 SW5       30.24R WCI  16
6HR MIN TEMP:  22; 6HR MAX TEMP:  27;

MOSINEE        CLOUDY    23  21  93 SW6       30.26S WCI  16
MARSHFIELD     CLOUDY    24  19  81 S6        30.25S WCI  17
6HR MIN TEMP:  23; 6HR MAX TEMP:  24;

STEVENS POINT  CLOUDY    23  18  83 S7        30.27S WCI  14
WAUPACA        CLEAR     26  19  75 S3        30.29S
WAUTOMA        NOT AVBL
WISC RAPIDS    CLOUDY    24  19  81 S6        30.29S WCI  17
6HR MIN TEMP:  24; 6HR MAX TEMP:  25;

CAMP DOUGLAS   CLOUDY    27  25  93 SE6       30.27F WCI  20
$$

WIZ011>013-019>022-031-037>040-048>050-200100-
NORTHEAST WISCONSIN

CITY           SKY/WX    TMP DP  RH WIND       PRES   REMARKS
ANTIGO         CLEAR     18  14  83 SW5       30.23R WCI  11
SHAWANO        CLEAR     27  20  72 CALM      30.29R
OCONTO         CLEAR     22  21  98 CALM      30.30R
STURGEON BAY   CLEAR     23  18  80 CALM      30.31R
6HR MIN TEMP:  23; 6HR MAX TEMP:  28;

GREEN BAY      PTCLDY    27  21  78 S3        30.30R
6HR MIN TEMP:  27; 6HR MAX TEMP:  31;

MANITOWOC      NOT AVBL
APPLETON       PTCLDY    27  18  69 VRB5      30.29R WCI  21
CLINTONVILLE   CLEAR     23  19  86 CALM      30.28R
OSHKOSH        CLOUDY    27  18  69 W3        30.30S
6HR MIN TEMP:  27; 6HR MAX TEMP:  30;

$$

WIZ032>034-041-042-053>061-200100-
SOUTHWEST WISCONSIN

CITY           SKY/WX    TMP DP  RH WIND       PRES   REMARKS
LA CROSSE      CLOUDY    30  21  69 S8        30.27F WCI  22
6HR MIN TEMP:  30; 6HR MAX TEMP:  31;

SPARTA         CLOUDY    29  20  69 S3        30.28S
VIROQUA        CLOUDY    28  22  80 S6        30.24F WCI  21
BOSCOBEL       CLOUDY    30  21  69 S3        30.29F
6HR MIN TEMP:  29; 6HR MAX TEMP:  31;

PRAIRIE DU CHI CLOUDY    29  21  71 E3        30.28F
PLATTEVILLE    CLOUDY    29  22  75 CALM      30.28F
$$

WIZ056-057-062-063-064-067-068-200100-
SOUTH CENTRAL WISCONSIN

CITY           SKY/WX    TMP DP  RH WIND       PRES   REMARKS
REEDSBURG      CLOUDY    25  21  83 CALM      30.29S
BARABOO/DELLS  CLOUDY    25  20  83 SE3       30.29S
LONE ROCK      NOT AVBL
MINERAL POINT  CLOUDY    30  23  74 CALM      30.26F
MADISON        CLOUDY    27  21  78 CALM      30.30S
6HR MIN TEMP:  26; 6HR MAX TEMP:  27; 6HR PCP: TRACE;

MIDDLETON      CLOUDY    28  21  75 CALM      30.30S
WATERTOWN      CLOUDY    26  19  76 SW6       30.30S WCI  19
MONROE         CLOUDY    27  23  86 CALM      30.27F
JANESVILLE     CLOUDY    28  21  74 CALM      30.30F
$$

WIZ051-052-058>065-066-070>072-200100-
SOUTHEAST WISCONSIN

CITY           SKY/WX    TMP DP  RH WIND       PRES   REMARKS
MILWAUKEE      MOCLDY    29  18  63 SW7       30.32R WCI  22
6HR MIN TEMP:  29; 6HR MAX TEMP:  31;

WAUKESHA       CLOUDY    27  19  74 SW5       30.31R WCI  21
MILWAUKEE/TIMM CLOUDY    30  18  59 SW7       30.31S WCI  23
RACINE         CLOUDY    28  19  69 SW6       30.33S WCI  22
6HR MIN TEMP:  28; 6HR MAX TEMP:  32;

BURLINGTON     CLOUDY    26  19  76 SW5       30.31S WCI  20
KENOSHA        CLOUDY    28  21  75 NW3       30.30F
6HR MIN TEMP:  28; 6HR MAX TEMP:  30;

FOND DU LAC    CLOUDY    28  19  69 W3        30.30S
6HR MIN TEMP:  28; 6HR MAX TEMP:  30;

SHEBOYGAN      CLOUDY    29  21  72 CALM      30.30R
6HR MIN TEMP:  29; 6HR MAX TEMP:  31;

WEST BEND      CLOUDY    30  21  69 CALM      30.29S
JUNEAU         CLOUDY    26  19  77 W6        30.31R WCI  19
$$

LSZ147-162-200100-
LAKE SUPERIOR

STATION/POSITION TIME  TEMP    WIND        PRES    WAVE
                       AIR SEA DIR/SP/G            HT/PER
                 (UTC) (F)     (DEG/KT/KT) (MB)    (FT/S)
DEVILS ISLAND    2300   26     180/  4/  6 1025.3R
PORT WING        2300   26     110/  2/  3 1023.7S
SAXON HARBOR     2340   26        CALM     1024.0S
$$

LMZ867-665-643>646-200100-
LAKE MICHIGAN

STATION/POSITION TIME  TEMP    WIND        PRES    WAVE
                       AIR SEA DIR/SP/G            HT/PER
                 (UTC) (F)     (DEG/KT/KT) (MB)    (FT/S)
CHAMBERS ISLAND  2300   23        CALM     1025.7R
NORTHPORT PIER   2322   25     190/  1/  3 1025.7
ALGOMA LAKESHORE 2314             CALM       N/A
KEWAUNEE LAKESHO 2300   29     320/  1/  3 1024.8R
SHEBOYGAN LAKESH 2300   31 33  290/  3/  4 1027.1R
PORT WASHINGTON  2340   31     280/  2/  5 1027.1R
MILWAUKEE LAKESH 2300   31     220/  7/  9   N/A
KENOSHA   LAKESH 2300   29     210/  8/ 12 1026.8R
$$

TC  - TEMPERATURE IN CELSIUS
VSB - VISIBILITY IN STATUTE MILES
WCI - WIND CHILL INDEX
HX  - HEAT INDEX




USA.gov is the U.S. government's official web portal to all federal, state and local government web resources and services.